Location: *
(45.1333°S, 169.6333°W)
Time: 19:30:36
(UTC+00:00)

Cosmos 1782 - Pass Details

Date: 26 May 2022
Orbit: 532 x 548 km, 82.5° (Epoch: 01 July)

Event Time Altitude Azimuth Distance (km) Brightness Sun altitude
Rises 05:17:12 0° 187° (S) 2,733 6.3 -15.1°
Reaches altitude 10° 05:19:23 10° 185° (S) 1,830 5.4 -15.4°
Maximum altitude 05:23:24 73° 100° (E) 573 2.7 -16.1°
Drops below altitude 10° 05:27:21 10° 14° (NNE) 1,797 5.4 -16.8°
Sets 05:29:30 0° 12° (NNE) 2,679 6.4 -17.2°
